{"data":{"norad_id":56962,"epoch":"2026-05-24T22:55:40.855872Z","epoch_age_seconds":89293,"freshness":"FRESH","line1":"1 56962U 23084AG  26144.95533398  .00200449  17170-4  60586-3 0  9994","line2":"2 56962  97.5937 306.0955 0003663 259.1202 100.9659 15.92154177165348","mean_motion":15.92154177,"eccentricity":0.0003663,"inclination_deg":97.5937,"raan_deg":306.0955,"arg_perigee_deg":259.1202,"mean_anomaly_deg":100.9659,"bstar":0.00060586,"rev_number":16534,"period_min":90.443502319185,"perigee_km":293.81095265171,"apogee_km":298.70061280433,"semimajor_km":6674.392782728,"source":"CELESTRAK","updated_at":"2026-05-25T13:37:59.789442Z"}}